STARLINK-31270, 59154

Orbit data source: Space-Track

STARLINK-31270, 59154 is a payload satellite owned by SpaceX/Seattle (US) in LEO that was launched on Mon, 04 Mar 2024 UTC via an FALCON 9 launch vehicle from the Air Force Eastern Test Range (AFETR). Payload-class satellites include a variety of spacecraft equipped with specific instruments for various scientific and technological missions. These include communications satellites like Starlink; space stations such as the ISS; scientific satellites like the Hubble; Earth observation satellites from companies like Planet Labs, Umbra, and HawkEye 360; GPS; miniature CubeSats for education and research; and military/defense satellites.

Loading next visibility...
Identifier
59154, 2024-044C
Orbit
LEO
Country
Flag of USUS
Related business
Manufacturer
SpaceX/Seattle
Mission
Operational Commercial Communications
Bus & Motor
STARLINK V2M, Unknown motor
Mass
730 kg wet, ~700 kg dry
Launch date (UTC)
2024-03-04 (2 years ago)
Launch vehicle
FALCON 9
Launch site
Air Force Eastern Test Range (AFETR)
Object type
Payload
Rocket body
Debris
Shape & HBR
Box + 2 Pan, 14.5 m
Radar Cross Section
33.884 m², Large (>1 m²)

Expand to show TLE details & history
Last TLE update: 10 hours ago

TLE from 10 hours ago
0 STARLINK-31270
1 59154U 24044C   25251.18987292 -.00004308  00000-0 -14711-3 0  9993
2 59154  43.0034  57.7724 0001338 288.3223  71.7483 15.27584287 85681
Epoch: 2025-09-08T04:33Z
TLE epoch observation values (Epoch: 2025-09-08T04:33:25.02Z)
Latitude
-0.00002°
Longitude
1.91958°
Altitude
482.525 km
Speed
7.626 km/s
True Right ascension
03h 51m 05s
True Declination
0° 00' 00"
Sunlit
Object was in daylight at epoch
Visualization orbit readout
Latitude
Unknown
Longitude
Unknown
Altitude
Unknown
Speed
Unknown
Apparent Right ascension
Unknown
Apparent Declination
Unknown
Sunlit
N/A
Visualization observer readout
Local Sidereal Time
06:22:40
Azimuth
Unknown
Elevation
Unknown
Doppler factor
Unknown
Orbital elements
Apogee altitude
485.899 km
Perigee altitude
484.063 km
Semi-major axis
6,863.118 km
Eccentricity
0.00013
Inclination
43.0034°
RAAN
57.7724°
Arg. of periapsis
288.3223°
True anomaly
71.76286°
Mean anomaly
71.7483°
Eccentric anomaly
71.75558°
Mean motion
3.81734 °/min
Orbital period
94.31 mins
BSTAR
-0.00014711
Loading maneuver chart data...
Computing Atmospheric mass density...
Loading historical data...
Loading historical data...
Loading historical data...
Loading historical data...
Loading historical data...
Loading historical data...
Loading historical data...

Documentation

Showing up to 5 results
|